Sigfox identifier Datetime Temperature Humidity SNR
003B8E12 2018-10-09 07:51:29 20.6 39 11.9
003B8E12 2018-10-09 06:46:40 20.6 38 11.9
003B8E12 2018-10-09 05:41:48 20.6 38 11.9
003B8E12 2018-10-09 04:36:55 20.6 38 11.8
003B8E12 2018-10-09 01:22:22 20.5 38 11.9
003B8E12 2018-10-09 00:17:31 20.6 38 12.1
003B8E12 2018-10-08 23:12:39 20.6 38 11.9
003B8E12 2018-10-08 21:03:00 20.4 38 12
003B8E12 2018-10-08 19:58:04 20.4 38 12.1
003B8E12 2018-10-08 18:53:11 20.4 38 12.1
003B8E12 2018-10-08 17:48:20 20.4 38 12.2
003B8E12 2018-10-08 16:43:25 20.3 38 12.2
003B8E12 2018-10-08 09:09:20 20.2 38 12
003B8E12 2018-10-08 08:04:29 20.2 39 12
003B8E12 2018-10-08 06:59:32 20.2 39 12.1
003B8E12 2018-10-08 05:54:38 20.3 39 11.8
003B8E12 2018-10-08 04:49:43 20.4 39 11.8
003B8E12 2018-10-08 03:44:50 20.4 39 11.9
003B8E12 2018-10-08 02:40:01 20.4 39 11.8
003B8E12 2018-10-08 01:35:09 20.4 39 11.8
003B8E12 2018-10-07 23:25:31 20.4 39 11.8
003B8E12 2018-10-07 22:20:40 20.4 39 17.4
003B8E12 2018-10-07 21:15:44 20.4 39 17.4
003B8E12 2018-10-07 19:05:59 20.5 39 17.3
003B8E12 2018-10-07 18:01:04 20.5 39 17.3
003B8E12 2018-10-07 15:51:18 20.5 40 17.3
003B8E12 2018-10-07 13:41:43 20.6 40 17.4
003B8E12 2018-10-07 12:36:48 20.6 40 17.4
003B8E12 2018-10-07 10:27:04 20.6 40 17.4
003B8E12 2018-10-07 09:22:14 20.6 40 17.4
003B8E12 2018-10-07 07:12:31 20.6 40 17.4
003B8E12 2018-10-07 06:07:40 20.7 40 17.5
003B8E12 2018-10-07 05:02:47 20.6 40 17.5
003B8E12 2018-10-07 03:57:58 20.7 40 17.5
003B8E12 2018-10-07 02:53:09 20.8 40 17.5
003B8E12 2018-10-07 01:48:16 20.8 40 17.5
003B8E12 2018-10-07 00:43:26 20.8 40 17.6
003B8E12 2018-10-06 23:38:36 20.8 40 17.6
003B8E12 2018-10-06 22:33:46 20.8 40 17.5
003B8E12 2018-10-06 21:28:58 20.8 40 17.5
003B8E12 2018-10-06 20:24:07 20.8 40 19.8
003B8E12 2018-10-06 18:14:23 20.8 40 19.8
003B8E12 2018-10-06 17:09:32 20.8 40 19.8
003B8E12 2018-10-06 14:59:57 20.8 40 19.8
003B8E12 2018-10-06 13:55:04 20.8 40 19.7
003B8E12 2018-10-06 12:50:12 20.9 40 19.7
003B8E12 2018-10-06 11:45:28 20.9 40 17.4
003B8E12 2018-10-06 10:40:38 21 40 17.4
003B8E12 2018-10-06 09:35:49 21 40 17.4
003B8E12 2018-10-06 07:26:08 21 40 17.4
003B8E12 2018-10-06 06:21:21 21 40 17.4
003B8E12 2018-10-06 05:16:34 21 40 17.4
003B8E12 2018-10-06 04:11:42 21 40 17.3
003B8E12 2018-10-06 03:06:50 21 40 17.2
003B8E12 2018-10-06 02:02:04 21 40 17.2
003B8E12 2018-10-06 00:57:11 21 40 17.4
003B8E12 2018-10-05 23:52:19 21 40 17.4
003B8E12 2018-10-05 22:47:30 21 40 17.3
003B8E12 2018-10-05 21:42:39 21 40 17.4
003B8E12 2018-10-05 20:37:50 21 40 17.4
003B8E12 2018-10-05 19:33:02 21 40 17.4
003B8E12 2018-10-05 18:28:12 21 40 17.3
003B8E12 2018-10-05 17:23:20 21 39 17.3
003B8E12 2018-10-05 16:18:31 21 39 17.3
003B8E12 2018-10-05 15:13:39 21 38 17.3
003B8E12 2018-10-05 13:03:54 20.8 38 11.6
003B8E12 2018-10-05 11:59:04 20.8 38 11.8
003B8E12 2018-10-05 08:44:27 20.6 33 11.9
003B8E12 2018-10-05 07:39:41 20.6 33 12.1
003B8E12 2018-10-05 06:34:49 20.6 33 12.1
003B8E12 2018-10-05 05:29:57 20.6 33 12.2
003B8E12 2018-10-05 04:25:03 20.6 33 12.1
003B8E12 2018-10-05 03:20:10 20.6 33 12.1
003B8E12 2018-10-05 02:15:24 20.6 33 12
003B8E12 2018-10-05 01:10:33 20.6 33 11.9
003B8E12 2018-10-05 00:05:46 20.6 33 11.9
003B8E12 2018-10-04 23:00:54 20.6 33 11.8
003B8E12 2018-10-04 21:56:05 20.6 33 16.4
003B8E12 2018-10-04 19:46:27 20.6 33 16.4
003B8E12 2018-10-04 18:41:36 20.6 33 16.4
003B8E12 2018-10-04 16:31:57 20.4 33 16.1
003B8E12 2018-10-04 15:27:08 20.4 33 16
003B8E12 2018-10-04 14:22:14 20.4 34 16.1
003B8E12 2018-10-04 13:17:21 20.3 35 15.9
003B8E12 2018-10-04 12:12:26 20.2 35 15.9
003B8E12 2018-10-04 11:07:35 20.2 36 16.1
003B8E12 2018-10-04 10:02:44 20.2 37 16.1
003B8E12 2018-10-04 08:57:53 20.2 37 16.4
003B8E12 2018-10-04 07:52:59 20.2 38 16.5
003B8E12 2018-10-04 06:48:09 20.3 39 17
003B8E12 2018-10-04 05:43:13 20.4 39 17.6
003B8E12 2018-10-04 04:38:23 20.4 39 17.8
003B8E12 2018-10-04 03:33:28 20.4 40 18.1
003B8E12 2018-10-04 02:28:37 20.4 40 18
003B8E12 2018-10-04 01:23:42 20.4 40 18.2
003B8E12 2018-10-04 00:18:48 20.4 41 18.7
003B8E12 2018-10-03 23:13:54 20.5 41 18.9
003B8E12 2018-10-03 22:09:02 20.6 41 18.9
003B8E12 2018-10-03 21:04:13 20.6 41 19
003B8E12 2018-10-03 19:59:22 20.6 41 19
003B8E12 2018-10-03 18:54:33 20.6 41 19
003B8E12 2018-10-03 17:49:44 20.6 42 19
003B8E12 2018-10-03 16:44:47 20.6 41 60.2
003B8E12 2018-10-03 15:39:54 20.6 41 60.2
003B8E12 2018-10-03 14:35:02 20.6 41 60.2
003B8E12 2018-10-03 13:30:09 20.6 41 60.2
003B8E12 2018-10-03 12:25:21 20.6 40 60.2
003B8E12 2018-10-03 11:20:26 20.6 41 60.2
003B8E12 2018-10-03 10:15:31 20.6 40 60.2
003B8E12 2018-10-03 09:10:38 20.4 40 60.2
003B8E12 2018-10-03 08:05:46 20.2 39 60.2
003B8E12 2018-10-03 07:00:48 20.2 40 60.2
003B8E12 2018-10-03 05:55:54 20.4 40 60.2
003B8E12 2018-10-03 04:51:00 20.3 40 60.2
003B8E12 2018-10-03 03:46:05 20.3 40 60.2
003B8E12 2018-10-03 02:41:10 20.4 40 60.2
003B8E12 2018-10-03 01:36:15 20.4 41 60.2
003B8E12 2018-10-03 00:31:21 20.4 40 60.2
003B8E12 2018-10-02 23:26:28 20.4 40 60.2
003B8E12 2018-10-02 22:21:37 20.4 40 60.2
003B8E12 2018-10-02 21:16:44 20.4 40 60.4
003B8E12 2018-10-02 20:11:50 20.5 40 60.6
003B8E12 2018-10-02 19:06:57 20.6 40 60.8
003B8E12 2018-10-02 18:02:03 20.6 40 61
003B8E12 2018-10-02 16:57:14 20.7 41 61.2
003B8E12 2018-10-02 15:52:17 20.7 39 61.4
003B8E12 2018-10-02 14:47:23 20.6 39 61.7
003B8E12 2018-10-02 13:42:29 20.6 39 11
003B8E12 2018-10-02 12:37:34 20.6 41 10.9
003B8E12 2018-10-02 11:32:36 20.6 43 10.4
003B8E12 2018-10-02 10:27:41 20.4 43 10.6
003B8E12 2018-10-02 09:22:47 20.4 43 10.6
003B8E12 2018-10-02 08:17:52 20.2 41 10.5
003B8E12 2018-10-02 07:12:58 20.4 45 10.4
003B8E12 2018-10-02 06:08:03 20.4 45 10
003B8E12 2018-10-02 03:58:14 20.4 45 10.3
003B8E12 2018-10-02 02:53:20 20.4 45 10.5
003B8E12 2018-10-02 01:48:28 20.4 45 9.2
003B8E12 2018-10-02 00:43:34 20.4 45 9.5
003B8E12 2018-10-01 23:38:37 20.4 45 9.4
003B8E12 2018-10-01 21:28:45 20.4 45 9.2
003B8E12 2018-10-01 20:23:47 20.4 45 8.7
003B8E12 2018-10-01 19:18:53 20.2 45 8.8
003B8E12 2018-10-01 17:09:02 19.9 44 8.6
003B8E12 2018-10-01 16:04:06 19.4 46 0